Weather in Dzhanhot

Russia / Krasnodar Krai     44°27′58″N   38°09′39″E
temp.,
°C
wind,
m/s
gust,
m/s
humid.,
%
clouds,
%
prec.,
mm/h
press.,
hPa
HPBL,
m
13 april, tue
tue1300:00+7sse1296100 0.3 1024152
03:00+6s129797 0.5 102386
06:00+7e009482 0.1 102324
09:00+10wsw1175100 0.1 1023679
12:00+12wsw2267100 0.0 1022989
15:00+11w227299 0.0 1022690
18:00+9nw238034 0.0 1021292
21:00+7nnw229474 0.0 102122
14 april, wed
wed1400:00+6nne1194100 0.0 102016
03:00+6ese1195100 0.0 102034
06:00+7se2495100 0.1 1020287
09:00+9se348050 0.1 1020677
12:00+12s346726 0.0 1019840
15:00+13sse3461100 0.0 1018774
18:00+11sse237499 0.0 1018297
21:00+7e1185100 0.0 101816
15 april, thu
thu1500:00+6e228190 0.0 101720
03:00+6e22860 0.0 101738
06:00+6e228734 0.0 101726
09:00+13sse245888 0.0 1017431
12:00+15sw345115 0.0 1017821
15:00+16ssw154614 0.0 1017742
18:00+11w238021 0.0 1018324
21:00+8nnw1295100 0.0 101825
16 april, fri
fri1600:00+8nw1193100 0.0 101716
03:00+7nnw2180100 0.0 101725
06:00+8nnw1172100 0.0 101722
09:00+9wnw5677100 0.1 1018520
12:00+10nne1280100 0.6 1018142
15:00+12w226990 0.7 1019902
18:00+9w238467 0.0 1019389
21:00+6wnw129746 0.0 102153
17 april, sat
sat1700:00+7w128953 0.0 102266
03:00+5nw119527 0.0 102217
06:00+4e119794 0.0 102217
09:00+10s1269100 0.0 1022588
12:00+13wsw2256100 0.0 1021932
15:00+13wsw2154100 0.0 1021673
18:00+11nw2268100 0.0 102069
21:00+7nne228398 0.0 102025